User: anonymous   Login
Location: Roanoke
(37.2710°N, 79.9420°W)
Time: 22:20:40
(UTC-04:00)
Language:

Cosmos 1441 Rocket - Orbit

View from above orbital plane
View from above orbital plane
View from above satellite
View from above satellite

Ground track
Ground track

The orbit data is extracted from the following two-line orbital elements,

1 13819U 83010B   15088.13872847  .00005316  00000-0  29790-3 0  9991
2 13819 081.1196 025.1372 0034784 157.3853 202.8917 15.12707312750996
Epoch (UTC): 29 March 2015 03:19:46
Eccentricity: 0.0034784
inclination: 81.1196°
perigee height: 504 km
apogee height: 552 km
right ascension of ascending node: 25.1372°
argument of perigee: 157.3853°
revolutions per day: 15.12707312
mean anomaly at epoch: 202.8917°
orbit number at epoch: 75099

The dashed part of the orbit path shows where the satellite is in the earth's shadow,  

DLR